Weather History for Cherry Point, NC

Change the Weather History Date:

Tuesday, April 8, 2014

  Actual Average Record
Temperature  
Mean Temperature 66 °F -  
Max Temperature 70 °F 69 °F 86 °F (2001)
Min Temperature 62 °F 48 °F 30 °F (2007)
Growing Degree Days 16 (Base 50)    
Moisture  
Dew Point 63 °F    
Average Humidity 86    
Maximum Humidity 94    
Minimum Humidity 67    
Precipitation  
Precipitation 0.36 in - - ()
Sea Level Pressure  
Sea Level Pressure 29.65 in    
Wind  
Wind Speed 13 mph (SSW)    
Max Wind Speed 20 mph    
Max Gust Speed 31 mph    
Visibility 8 miles    
Events Rain    
Averages and records for this station are not official NWS values.
T = Trace of Precipitation, MM = Missing Value Source: NWS Daily Summary

Daily Weather History Graph

Daily Weather History Graph

Search for Another Location

Airport:

Trip Planner

Search our weather history database for the weather conditions in past years. The results will help you decide how hot, cold, wet, or windy it might be!

Date:

Astronomy

Apr. 08, 2014 Rise Set
Actual Time 6:44 AM EDT 7:34 PM EDT
Civil Twilight 6:19 AM EDT 8:00 PM EDT
Nautical Twilight 5:48 AM EDT 8:30 PM EDT
Astronomical Twilight 5:17 AM EDT 9:01 PM EDT
Moon 1:39 PM EDT (4/8) 2:42 AM EDT (4/8)
Length of Visible Light 13h 40m
Length of Day
12h 49m
Waxing Gibbous, 62% of the Moon is Illuminated
Apr 8
Waxing Gibbous
Apr 15
Full
Apr 22
Last Quarter
Apr 29
New
May 6
First Quarter

Hourly Weather History & Observations

Time (EDT) Temp. Dew Point Humidity Pressure Visibility Wind Dir Wind Speed Gust Speed Precip Events Conditions
12:22 AM 68.0 °F 63.0 °F 84% 29.79 in 2.0 mi SSW 16.1 mph 31.1 mph 0.03 in Rain Light Rain
12:54 AM 66.0 °F 60.1 °F 81% 29.76 in 2.0 mi South 15.0 mph 23.0 mph 0.03 in   Mostly Cloudy
1:54 AM 66.9 °F 60.1 °F 79% 29.73 in 2.0 mi South 16.1 mph 27.6 mph N/A   Overcast
2:51 AM 69.8 °F 64.4 °F 83% 29.72 in 2.0 mi South 12.7 mph 23.0 mph 0.04 in Rain Rain
2:54 AM 68.0 °F 64.9 °F 90% 29.71 in 2.0 mi South 19.6 mph 24.2 mph 0.05 in Rain Light Rain
3:16 AM 68.0 °F 64.0 °F 87% 29.71 in 2.0 mi South 16.1 mph 27.6 mph 0.06 in Rain Light Rain
3:32 AM 68.0 °F 64.9 °F 90% 29.71 in 2.0 mi SSW 15.0 mph 21.9 mph 0.12 in Rain Rain
3:54 AM 66.9 °F 64.0 °F 90% 29.69 in 2.0 mi South 18.4 mph 26.5 mph 0.14 in   Overcast
4:13 AM 68.0 °F 64.0 °F 87% 29.68 in 2.0 mi South 13.8 mph 20.7 mph N/A   Overcast
4:25 AM 68.0 °F 64.9 °F 90% 29.67 in 2.0 mi South 16.1 mph 23.0 mph N/A   Overcast
4:54 AM 68.0 °F 64.9 °F 90% 29.67 in 2.0 mi SSW 16.1 mph 28.8 mph N/A   Overcast
5:54 AM 69.1 °F 64.9 °F 87% 29.65 in 2.0 mi SSW 15.0 mph 26.5 mph N/A   Overcast
6:23 AM 69.1 °F 64.9 °F 87% 29.67 in 10.0 mi SSW 16.1 mph 27.6 mph 0.00 in   Overcast
6:54 AM 69.1 °F 66.0 °F 90% 29.66 in 6.0 mi SW 17.3 mph 28.8 mph 0.08 in Rain Light Rain
7:10 AM 68.0 °F 64.9 °F 90% 29.67 in 9.0 mi SW 17.3 mph 27.6 mph 0.01 in Rain Light Rain
7:26 AM 68.0 °F 64.9 °F 90% 29.67 in 9.0 mi SW 15.0 mph - 0.01 in Rain Light Rain
7:35 AM 68.0 °F 64.9 °F 90% 29.67 in 10.0 mi SW 13.8 mph - 0.02 in Rain Light Rain
7:54 AM 68.0 °F 64.0 °F 87% 29.66 in 10.0 mi SW 17.3 mph 21.9 mph 0.02 in Rain Light Rain
8:49 AM 66.2 °F 64.4 °F 94% 29.69 in 10.0 mi SW 11.5 mph - 0.02 in Rain Light Rain
8:54 AM 66.9 °F 64.0 °F 90% 29.67 in 8.0 mi SSW 6.9 mph - 0.03 in Rain Light Rain
9:54 AM 68.0 °F 64.9 °F 90% 29.67 in 5.0 mi SSW 8.1 mph - 0.01 in   Mostly Cloudy
10:01 AM 68.0 °F 64.9 °F 90% 29.66 in 9.0 mi SSW 6.9 mph - N/A   Overcast
10:42 AM 66.9 °F 64.0 °F 90% 29.67 in 9.0 mi SSW 8.1 mph - N/A   Overcast
10:54 AM 66.9 °F 64.0 °F 90% 29.66 in 8.0 mi SSW 10.4 mph - N/A   Overcast
11:03 AM 66.9 °F 64.0 °F 90% 29.67 in 9.0 mi SSW 10.4 mph - N/A   Overcast
11:54 AM 68.0 °F 64.0 °F 87% 29.66 in 10.0 mi SSW 10.4 mph - N/A   Overcast
12:10 PM 68.0 °F 64.0 °F 87% 29.66 in 8.0 mi SSW 8.1 mph - N/A   Overcast
12:38 PM 66.9 °F 64.0 °F 90% 29.64 in 10.0 mi South 9.2 mph 19.6 mph N/A   Overcast
12:47 PM 68.0 °F 64.0 °F 87% 29.65 in 10.0 mi SSW 8.1 mph - N/A   Overcast
12:54 PM 68.0 °F 64.0 °F 87% 29.63 in 10.0 mi South 8.1 mph - N/A   Mostly Cloudy
1:12 PM 66.9 °F 64.0 °F 90% 29.62 in 10.0 mi South 10.4 mph 18.4 mph N/A   Mostly Cloudy
1:32 PM 66.9 °F 63.0 °F 87% 29.64 in 10.0 mi North - - N/A   Mostly Cloudy
1:54 PM 68.0 °F 63.0 °F 84% 29.63 in 10.0 mi SSW 10.4 mph - N/A   Mostly Cloudy
2:01 PM 68.0 °F 63.0 °F 84% 29.63 in 10.0 mi SW 10.4 mph - N/A   Mostly Cloudy
2:13 PM 68.0 °F 64.0 °F 87% 29.62 in 10.0 mi SSW 9.2 mph - N/A   Mostly Cloudy
2:20 PM 68.0 °F 63.0 °F 84% 29.60 in 10.0 mi South 8.1 mph - N/A   Scattered Clouds
2:54 PM 68.0 °F 63.0 °F 84% 29.61 in 10.0 mi SSW 11.5 mph - N/A   Mostly Cloudy
3:15 PM 68.0 °F 63.0 °F 84% 29.61 in 10.0 mi SSW 10.4 mph 18.4 mph 0.00 in   Mostly Cloudy
3:54 PM 68.0 °F 63.0 °F 84% 29.60 in 10.0 mi SSW 13.8 mph 23.0 mph 0.00 in   Mostly Cloudy
4:33 PM 69.1 °F 63.0 °F 81% 29.59 in 10.0 mi SW 11.5 mph - N/A   Mostly Cloudy
4:54 PM 69.1 °F 62.1 °F 78% 29.58 in 10.0 mi SSW 10.4 mph - N/A   Mostly Cloudy
5:54 PM 66.0 °F 61.0 °F 84% 29.59 in 10.0 mi SSW 9.2 mph - N/A   Scattered Clouds
6:05 PM 64.9 °F 60.1 °F 84% 29.60 in 10.0 mi SSW 11.5 mph 20.7 mph N/A   Mostly Cloudy
6:54 PM 64.0 °F 60.1 °F 87% 29.59 in 10.0 mi SW 5.8 mph - N/A   Mostly Cloudy
7:54 PM 64.0 °F 60.1 °F 87% 29.61 in 10.0 mi WNW 5.8 mph - N/A   Mostly Cloudy
8:01 PM 64.0 °F 60.1 °F 87% 29.62 in 10.0 mi West 4.6 mph - N/A   Overcast
8:54 PM 63.0 °F 60.1 °F 90% 29.63 in 9.0 mi WSW 6.9 mph - N/A   Overcast
9:54 PM 64.0 °F 54.0 °F 70% 29.65 in 10.0 mi North 11.5 mph - N/A   Overcast
10:40 PM 62.1 °F 52.0 °F 70% 29.64 in 10.0 mi North 9.2 mph - N/A   Mostly Cloudy
10:54 PM 62.1 °F 53.1 °F 72% 29.65 in 10.0 mi North 5.8 mph - N/A   Mostly Cloudy
11:54 PM 62.1 °F 51.1 °F 67% 29.63 in 10.0 mi North 8.1 mph - N/A   Scattered Clouds